| time (UTC) | temp F | wind direction | speed MPH | gust MPH | rain 1hr in | rain 24hr in | rain mn in | humidity % | barometer mb |
| 20260509193310 | 72 | 292 | 4.0 | 9.0 | 0.00 | 0.00 | 0.00 | 69 | 1012.3 |
| 20260509193102 | 72 | 204 | 4.0 | 10.0 | 0.00 | 0.00 | 0.00 | 68 | 1012.3 |
| 20260509192240 | 73 | 200 | 3.0 | 8.0 | 0.00 | 0.00 | 0.00 | 66 | 1012.3 |
| 20260509191503 | 73 | 257 | 2.0 | 9.0 | 0.00 | 0.00 | 0.00 | 68 | 1012.4 |
| 20260509191257 | 73 | 160 | 3.0 | 8.0 | 0.00 | 0.00 | 0.00 | 68 | 1012.4 |
| 20260509190244 | 73 | 215 | 3.0 | 8.0 | 0.00 | 0.00 | 0.00 | 69 | 1012.6 |
| 20260509190007 | 72 | 158 | 4.0 | 9.0 | 0.00 | 0.00 | 0.00 | 68 | 1012.7 |
| 20260509185215 | 72 | 154 | 2.0 | 5.0 | 0.00 | 0.00 | 0.00 | 69 | 1012.6 |
| 20260509184610 | 71 | 200 | 2.0 | 6.0 | 0.00 | 0.00 | 0.00 | 69 | 1012.7 |
| 20260509183017 | 71 | 240 | 3.0 | 7.0 | 0.00 | 0.00 | 0.00 | 72 | 1012.7 |
| 20260509183002 | 70 | 176 | 3.0 | 8.0 | 0.00 | 0.00 | 0.00 | 72 | 1012.8 |
| 20260509181959 | 71 | 250 | 1.0 | 4.0 | 0.00 | 0.00 | 0.00 | 71 | 1012.8 |
| 20260509181608 | 71 | 155 | 3.0 | 5.0 | 0.00 | 0.00 | 0.00 | 71 | 1012.9 |
| 20260509181018 | 70 | 192 | 2.0 | 6.0 | 0.00 | 0.00 | 0.00 | 72 | 1012.9 |
| 20260509180105 | 69 | 202 | 2.0 | 5.0 | 0.00 | 0.00 | 0.00 | 73 | 1013.0 |
| 20260509180031 | 70 | 276 | 1.0 | 4.0 | 0.00 | 0.00 | 0.00 | 72 | 1012.9 |
| 20260509175051 | 69 | 229 | 2.0 | 5.0 | 0.00 | 0.00 | 0.00 | 74 | 1013.0 |
| 20260509174503 | 68 | 213 | 3.0 | 6.0 | 0.00 | 0.00 | 0.00 | 75 | 1013.1 |
| 20260509173103 | 68 | 238 | 3.0 | 8.0 | 0.00 | 0.00 | 0.00 | 76 | 1013.1 |
| 20260509172911 | 68 | 203 | 1.0 | 5.0 | 0.00 | 0.00 | 0.00 | 76 | 1013.0 |
| 20260509171924 | 68 | 249 | 1.0 | 4.0 | 0.00 | 0.00 | 0.00 | 77 | 1013.0 |
| 20260509171501 | 67 | 234 | 2.0 | 5.0 | 0.00 | 0.00 | 0.00 | 77 | 1013.0 |
| 20260509170003 | 66 | 206 | 4.0 | 7.0 | 0.00 | 0.00 | 0.00 | 78 | 1012.9 |
| 20260509165805 | 67 | 196 | 2.0 | 5.0 | 0.00 | 0.00 | 0.00 | 79 | 1012.8 |
| 20260509164813 | 66 | 208 | 2.0 | 5.0 | 0.00 | 0.00 | 0.00 | 80 | 1012.8 |
| 20260509164610 | 66 | 181 | 3.0 | 6.0 | 0.00 | 0.00 | 0.00 | 80 | 1012.9 |
| 20260509163758 | 65 | 214 | 1.0 | 2.0 | 0.00 | 0.00 | 0.00 | 82 | 1012.8 |
| 20260509163002 | 65 | 231 | 2.0 | 4.0 | 0.00 | 0.00 | 0.00 | 82 | 1012.9 |
| 20260509162803 | 65 | 171 | 1.0 | 4.0 | 0.00 | 0.00 | 0.00 | 83 | 1012.9 |
| 20260509161745 | 65 | 227 | 0.0 | 1.0 | 0.00 | 0.00 | 0.00 | 84 | 1013.0 |
| 20260509161603 | 64 | 161 | 0.0 | 3.0 | 0.00 | 0.00 | 0.00 | 85 | 1013.0 |
| 20260509160741 | 63 | 219 | 0.0 | 1.0 | 0.00 | 0.00 | 0.00 | 86 | 1013.0 |
| 20260509160105 | 62 | 203 | 0.0 | 1.0 | 0.00 | 0.00 | 0.00 | 88 | 1013.1 |
| 20260509154610 | 62 | 202 | 1.0 | 2.0 | 0.00 | 0.00 | 0.00 | 89 | 1013.2 |
| 20260509154503 | 61 | 224 | 1.0 | 3.0 | 0.00 | 0.00 | 0.00 | 89 | 1013.1 |
| 20260509153103 | 60 | 46 | 0.0 | 3.0 | 0.00 | 0.00 | 0.00 | 90 | 1013.3 |
| 20260509152454 | 61 | 25 | 0.0 | 2.0 | 0.00 | 0.00 | 0.00 | 90 | 1013.2 |
| 20260509151503 | 60 | 141 | 0.0 | 3.0 | 0.00 | 0.00 | 0.00 | 91 | 1013.2 |
| 20260509151458 | 60 | 141 | 0.0 | 2.0 | 0.00 | 0.00 | 0.00 | 91 | 1013.1 |
| 20260509150503 | 60 | 328 | 0.0 | 0.0 | 0.00 | 0.00 | 0.00 | 92 | 1013.2 |
| 20260509150002 | 59 | 6 | 0.0 | 1.0 | 0.00 | 0.00 | 0.00 | 92 | 1013.2 |
| 20260509144604 | 59 | 61 | 0.0 | 1.0 | 0.00 | 0.00 | 0.00 | 94 | 1013.2 |
| 20260509143152 | 59 | 203 | 0.0 | 0.0 | 0.00 | 0.00 | 0.00 | 94 | 1013.0 |
| 20260509143002 | 58 | 203 | 0.0 | 2.0 | 0.00 | 0.00 | 0.00 | 94 | 1013.0 |
| 20260509142131 | 59 | 202 | 0.0 | 0.0 | 0.00 | 0.00 | 0.00 | 94 | 1013.0 |
| 20260509141604 | 58 | 200 | 0.0 | 2.0 | 0.00 | 0.00 | 0.00 | 94 | 1013.1 |
| 20260509141130 | 59 | 197 | 0.0 | 0.0 | 0.00 | 0.00 | 0.00 | 94 | 1013.0 |
| 20260509140144 | 58 | 27 | 0.0 | 0.0 | 0.00 | 0.00 | 0.00 | 95 | 1013.0 |
| 20260509140107 | 58 | 28 | 0.0 | 2.0 | 0.00 | 0.00 | 0.00 | 95 | 1013.0 |
| 20260509135202 | 58 | 43 | 0.0 | 1.0 | 0.00 | 0.00 | 0.00 | 95 | 1012.9 |
| 20260509134502 | 58 | 42 | 0.0 | 1.0 | 0.00 | 0.00 | 0.00 | 95 | 1012.9 |
| 20260509134138 | 58 | 42 | 0.0 | 0.0 | 0.00 | 0.00 | 0.00 | 95 | 1012.8 |
| 20260509133120 | 58 | 43 | 0.0 | 0.0 | 0.00 | 0.00 | 0.00 | 95 | 1012.7 |
| 20260509133107 | 57 | 42 | 0.0 | 3.0 | 0.00 | 0.00 | 0.00 | 95 | 1012.8 |
| 20260509132137 | 58 | 45 | 0.0 | 1.0 | 0.00 | 0.00 | 0.00 | 95 | 1012.6 |
| 20260509131502 | 57 | 34 | 1.0 | 2.0 | 0.00 | 0.00 | 0.00 | 95 | 1012.7 |
| 20260509131146 | 58 | 35 | 0.0 | 1.0 | 0.00 | 0.00 | 0.00 | 95 | 1012.6 |
| 20260509130124 | 58 | 41 | 0.0 | 2.0 | 0.00 | 0.00 | 0.00 | 95 | 1012.6 |
| 20260509130003 | 57 | 40 | 1.0 | 3.0 | 0.00 | 0.00 | 0.00 | 95 | 1012.6 |
| 20260509124603 | 57 | 37 | 0.0 | 3.0 | 0.00 | 0.00 | 0.00 | 95 | 1012.6 |
| 20260509123931 | 58 | 14 | 0.0 | 2.0 | 0.00 | 0.00 | 0.00 | 95 | 1012.5 |
| 20260509123002 | 57 | 43 | 0.0 | 2.0 | 0.00 | 0.00 | 0.00 | 95 | 1012.6 |
| 20260509122948 | 58 | 44 | 0.0 | 1.0 | 0.00 | 0.00 | 0.00 | 95 | 1012.5 |
| 20260509120733 | 57 | 49 | 0.0 | 0.0 | 0.00 | 0.00 | 0.00 | 95 | 1012.3 |
| 20260509120108 | 57 | 49 | 0.0 | 2.0 | 0.00 | 0.00 | 0.00 | 95 | 1012.4 |
| 20260509115756 | 57 | 34 | 0.0 | 0.0 | 0.00 | 0.00 | 0.00 | 95 | 1012.4 |
| 20260509114508 | 57 | 45 | 1.0 | 2.0 | 0.00 | 0.00 | 0.00 | 95 | 1012.5 |
| 20260509113654 | 57 | 54 | 0.0 | 0.0 | 0.00 | 0.00 | 0.00 | 95 | 1012.5 |
| 20260509113110 | 57 | 53 | 0.0 | 1.0 | 0.00 | 0.00 | 0.00 | 95 | 1012.5 |
| 20260509112642 | 57 | 54 | 0.0 | 0.0 | 0.00 | 0.00 | 0.00 | 95 | 1012.4 |
| 20260509111647 | 57 | 53 | 0.0 | 0.0 | 0.00 | 0.00 | 0.00 | 95 | 1012.5 |
| 20260509111505 | 57 | 53 | 0.0 | 2.0 | 0.00 | 0.00 | 0.00 | 95 | 1012.6 |
| 20260509110708 | 58 | 157 | 0.0 | 0.0 | 0.00 | 0.00 | 0.00 | 95 | 1012.5 |
| 20260509110002 | 57 | 155 | 1.0 | 2.0 | 0.00 | 0.00 | 0.00 | 95 | 1012.6 |
| 20260509105647 | 58 | 210 | 0.0 | 0.0 | 0.00 | 0.00 | 0.00 | 95 | 1012.6 |
| 20260509104602 | 57 | 40 | 0.0 | 0.0 | 0.00 | 0.00 | 0.00 | 95 | 1012.6 |
| 20260509103004 | 57 | 356 | 0.0 | 1.0 | 0.00 | 0.00 | 0.00 | 95 | 1012.5 |
| 20260509102310 | 58 | 354 | 0.0 | 0.0 | 0.00 | 0.00 | 0.00 | 95 | 1012.5 |
| 20260509101256 | 58 | 354 | 0.0 | 0.0 | 0.00 | 0.00 | 0.00 | 95 | 1012.6 |
| 20260509100241 | 58 | 14 | 0.0 | 3.0 | 0.00 | 0.00 | 0.00 | 95 | 1012.7 |
| 20260509095219 | 58 | 46 | 0.0 | 0.0 | 0.00 | 0.00 | 0.00 | 95 | 1012.8 |
| 20260509094502 | 57 | 323 | 0.0 | 0.0 | 0.00 | 0.00 | 0.00 | 95 | 1012.9 |
| 20260509094211 | 57 | 323 | 0.0 | 0.0 | 0.00 | 0.00 | 0.00 | 95 | 1012.8 |
| 20260509093236 | 58 | 316 | 0.0 | 0.0 | 0.00 | 0.00 | 0.00 | 95 | 1012.9 |
| 20260509093102 | 57 | 316 | 0.0 | 0.0 | 0.00 | 0.00 | 0.00 | 95 | 1012.9 |
| 20260509092234 | 57 | 316 | 0.0 | 0.0 | 0.00 | 0.00 | 0.00 | 95 | 1012.9 |
| 20260509091502 | 57 | 49 | 0.0 | 1.0 | 0.00 | 0.00 | 0.00 | 95 | 1013.0 |
| 20260509091240 | 57 | 49 | 0.0 | 0.0 | 0.00 | 0.00 | 0.00 | 95 | 1012.9 |
| 20260509090233 | 57 | 49 | 0.0 | 0.0 | 0.00 | 0.00 | 0.00 | 95 | 1013.0 |
| 20260509090006 | 57 | 49 | 0.0 | 1.0 | 0.00 | 0.00 | 0.00 | 95 | 1013.0 |
| 20260509085254 | 57 | 49 | 0.0 | 0.0 | 0.00 | 0.00 | 0.00 | 95 | 1013.0 |
| 20260509084606 | 57 | 49 | 0.0 | 1.0 | 0.00 | 0.00 | 0.00 | 95 | 1013.1 |
| 20260509084254 | 57 | 49 | 0.0 | 0.0 | 0.00 | 0.00 | 0.00 | 95 | 1013.1 |
| 20260509083316 | 57 | 49 | 0.0 | 1.0 | 0.00 | 0.00 | 0.00 | 95 | 1013.1 |
| 20260509083007 | 57 | 49 | 0.0 | 2.0 | 0.00 | 0.00 | 0.00 | 95 | 1013.1 |
| 20260509081603 | 56 | 51 | 1.0 | 2.0 | 0.00 | 0.00 | 0.00 | 95 | 1013.2 |
| 20260509080113 | 56 | 48 | 1.0 | 2.0 | 0.00 | 0.00 | 0.00 | 95 | 1013.4 |
| 20260509080025 | 57 | 49 | 0.0 | 1.0 | 0.00 | 0.00 | 0.00 | 95 | 1013.3 |
| 20260509075039 | 57 | 15 | 0.0 | 1.0 | 0.00 | 0.00 | 0.00 | 95 | 1013.4 |
| 20260509074604 | 56 | 33 | 0.0 | 2.0 | 0.00 | 0.00 | 0.00 | 95 | 1013.5 |
| 20260509073004 | 56 | 124 | 0.0 | 1.0 | 0.00 | 0.00 | 0.00 | 95 | 1013.4 |
| 20260509072905 | 56 | 124 | 0.0 | 0.0 | 0.00 | 0.00 | 0.00 | 95 | 1013.4 |
| 20260509071903 | 56 | 124 | 0.0 | 0.0 | 0.00 | 0.00 | 0.00 | 94 | 1013.4 |
| 20260509071603 | 55 | 124 | 0.0 | 1.0 | 0.00 | 0.00 | 0.00 | 94 | 1013.7 |
| 20260509070839 | 56 | 137 | 0.0 | 0.0 | 0.00 | 0.00 | 0.00 | 94 | 1013.7 |
| 20260509070104 | 55 | 137 | 0.0 | 1.0 | 0.00 | 0.00 | 0.00 | 93 | 1013.6 |
| 20260509065845 | 56 | 137 | 0.0 | 0.0 | 0.00 | 0.00 | 0.00 | 93 | 1013.6 |
| 20260509064817 | 56 | 137 | 0.0 | 0.0 | 0.00 | 0.00 | 0.00 | 93 | 1013.7 |
| 20260509063840 | 55 | 174 | 0.0 | 0.0 | 0.00 | 0.00 | 0.00 | 93 | 1013.7 |
| 20260509063122 | 55 | 174 | 0.0 | 1.0 | 0.00 | 0.00 | 0.00 | 94 | 1013.6 |
| 20260509062902 | 56 | 174 | 0.0 | 0.0 | 0.00 | 0.00 | 0.00 | 93 | 1013.6 |
| 20260509061853 | 56 | 174 | 0.0 | 0.0 | 0.00 | 0.00 | 0.00 | 93 | 1013.5 |
| 20260509061501 | 55 | 174 | 0.0 | 0.0 | 0.00 | 0.00 | 0.00 | 93 | 1013.6 |
| 20260509060003 | 55 | 174 | 0.0 | 0.0 | 0.00 | 0.00 | 0.00 | 93 | 1013.7 |
| 20260509055717 | 56 | 174 | 0.0 | 0.0 | 0.00 | 0.00 | 0.00 | 93 | 1013.7 |
| 20260509054741 | 56 | 174 | 0.0 | 0.0 | 0.00 | 0.00 | 0.00 | 93 | 1013.7 |
| 20260509054604 | 55 | 174 | 0.0 | 0.0 | 0.00 | 0.00 | 0.00 | 92 | 1013.8 |
| 20260509053714 | 56 | 174 | 0.0 | 0.0 | 0.00 | 0.00 | 0.00 | 93 | 1013.7 |
| 20260509053002 | 55 | 174 | 0.0 | 0.0 | 0.00 | 0.00 | 0.00 | 92 | 1013.8 |
| 20260509052644 | 56 | 174 | 0.0 | 0.0 | 0.00 | 0.00 | 0.00 | 92 | 1013.8 |
| 20260509051653 | 56 | 174 | 0.0 | 0.0 | 0.00 | 0.00 | 0.00 | 92 | 1013.7 |
| 20260509051605 | 55 | 174 | 0.0 | 0.0 | 0.00 | 0.00 | 0.00 | 92 | 1013.7 |
| 20260509050106 | 56 | 174 | 0.0 | 0.0 | 0.00 | 0.00 | 0.00 | 92 | 1013.7 |
| 20260509044503 | 56 | 174 | 0.0 | 0.0 | 0.00 | 0.00 | 0.00 | 92 | 1013.7 |
| 20260509044327 | 56 | 174 | 0.0 | 0.0 | 0.00 | 0.00 | 0.00 | 92 | 1013.6 |
| 20260509043307 | 57 | 174 | 0.0 | 0.0 | 0.00 | 0.00 | 0.00 | 92 | 1013.5 |
| 20260509043105 | 56 | 174 | 0.0 | 0.0 | 0.00 | 0.00 | 0.00 | 92 | 1013.5 |
| 20260509042307 | 57 | 174 | 0.0 | 0.0 | 0.00 | 0.00 | 0.00 | 91 | 1013.4 |
| 20260509041501 | 56 | 174 | 0.0 | 0.0 | 0.00 | 0.00 | 0.00 | 91 | 1013.4 |
| 20260509041258 | 57 | 174 | 0.0 | 0.0 | 0.00 | 0.00 | 0.00 | 91 | 1013.4 |
| 20260509040258 | 57 | 174 | 0.0 | 0.0 | 0.00 | 0.00 | 0.00 | 91 | 1013.3 |
| 20260509040002 | 56 | 174 | 0.0 | 0.0 | 0.00 | 0.00 | 0.00 | 91 | 1013.3 |
| 20260509035306 | 57 | 174 | 0.0 | 0.0 | 0.00 | 0.00 | 0.00 | 90 | 1013.3 |
| 20260509034608 | 57 | 174 | 0.0 | 0.0 | 0.00 | 0.00 | 0.00 | 91 | 1013.3 |
| 20260509034258 | 57 | 174 | 0.0 | 0.0 | 0.00 | 0.00 | 0.00 | 90 | 1013.2 |
| 20260509033229 | 58 | 174 | 0.0 | 0.0 | 0.00 | 0.00 | 0.00 | 90 | 1013.1 |
| 20260509033003 | 57 | 174 | 0.0 | 0.0 | 0.00 | 0.00 | 0.00 | 90 | 1013.0 |
| 20260509031602 | 58 | 210 | 0.0 | 1.0 | 0.00 | 0.00 | 0.00 | 90 | 1012.9 |
| 20260509031025 | 59 | 160 | 0.0 | 0.0 | 0.00 | 0.00 | 0.00 | 90 | 1012.8 |
| 20260509025951 | 59 | 153 | 0.0 | 0.0 | 0.00 | 0.00 | 0.00 | 90 | 1012.6 |
| 20260509024952 | 59 | 245 | 0.0 | 1.0 | 0.00 | 0.00 | 0.00 | 89 | 1012.6 |
| 20260509024503 | 59 | 243 | 0.0 | 1.0 | 0.00 | 0.00 | 0.00 | 89 | 1012.7 |
| 20260509023922 | 59 | 189 | 0.0 | 0.0 | 0.00 | 0.00 | 0.00 | 89 | 1012.6 |
| 20260509023004 | 59 | 205 | 1.0 | 4.0 | 0.00 | 0.00 | 0.00 | 88 | 1012.5 |
| 20260509021603 | 60 | 168 | 0.0 | 3.0 | 0.00 | 0.00 | 0.00 | 87 | 1012.5 |
| 20260509020556 | 61 | 276 | 0.0 | 4.0 | 0.00 | 0.00 | 0.00 | 87 | 1012.4 |
| 20260509015555 | 61 | 250 | 0.0 | 3.0 | 0.00 | 0.00 | 0.00 | 86 | 1012.3 |
| 20260509014606 | 62 | 245 | 1.0 | 3.0 | 0.00 | 0.00 | 0.00 | 85 | 1012.3 |
| 20260509014501 | 61 | 193 | 0.0 | 4.0 | 0.00 | 0.00 | 0.00 | 85 | 1012.4 |
| 20260509013537 | 62 | 200 | 2.0 | 4.0 | 0.00 | 0.00 | 0.00 | 84 | 1012.4 |
| 20260509013111 | 62 | 233 | 2.0 | 5.0 | 0.00 | 0.00 | 0.00 | 83 | 1012.5 |
| 20260509012533 | 63 | 169 | 0.0 | 6.0 | 0.00 | 0.00 | 0.00 | 83 | 1012.4 |
| 20260509011535 | 63 | 203 | 2.0 | 6.0 | 0.00 | 0.00 | 0.00 | 82 | 1012.4 |
| 20260509011506 | 63 | 167 | 3.0 | 7.0 | 0.00 | 0.00 | 0.00 | 82 | 1012.5 |
| 20260509010011 | 63 | 158 | 0.0 | 8.0 | 0.00 | 0.00 | 0.00 | 81 | 1012.3 |
| 20260509005400 | 65 | 204 | 2.0 | 8.0 | 0.00 | 0.00 | 0.00 | 80 | 1012.3 |
| 20260509004604 | 65 | 161 | 3.0 | 7.0 | 0.00 | 0.00 | 0.00 | 79 | 1012.3 |
| 20260509004338 | 65 | 225 | 1.0 | 7.0 | 0.00 | 0.00 | 0.00 | 79 | 1012.2 |
| 20260509003315 | 66 | 110 | 1.0 | 7.0 | 0.00 | 0.00 | 0.00 | 79 | 1012.3 |
| 20260509003004 | 66 | 209 | 4.0 | 8.0 | 0.00 | 0.00 | 0.00 | 77 | 1012.3 |
| 20260509002259 | 66 | 220 | 3.0 | 6.0 | 0.00 | 0.00 | 0.00 | 77 | 1012.3 |
| 20260509001606 | 66 | 137 | 3.0 | 8.0 | 0.00 | 0.00 | 0.00 | 77 | 1012.4 |
| 20260509001254 | 67 | 247 | 2.0 | 7.0 | 0.00 | 0.00 | 0.00 | 76 | 1012.3 |
| 20260509000230 | 67 | 252 | 3.0 | 9.0 | 0.00 | 0.00 | 0.00 | 76 | 1012.3 |
| 20260508235242 | 68 | 212 | 3.0 | 9.0 | 0.00 | 0.00 | 0.00 | 74 | 1012.3 |
| 20260508234502 | 68 | 205 | 3.0 | 8.0 | 0.00 | 0.00 | 0.00 | 73 | 1012.4 |
| 20260508234249 | 69 | 205 | 2.0 | 7.0 | 0.00 | 0.00 | 0.00 | 73 | 1012.3 |
| 20260508233232 | 70 | 169 | 2.0 | 8.0 | 0.00 | 0.00 | 0.00 | 72 | 1012.4 |
| 20260508233103 | 69 | 131 | 2.0 | 9.0 | 0.00 | 0.00 | 0.00 | 73 | 1012.4 |
| 20260508232213 | 70 | 205 | 3.0 | 8.0 | 0.00 | 0.00 | 0.00 | 71 | 1012.4 |
| 20260508231502 | 70 | 250 | 4.0 | 9.0 | 0.00 | 0.00 | 0.00 | 69 | 1012.5 |
| 20260508231232 | 71 | 244 | 2.0 | 8.0 | 0.00 | 0.00 | 0.00 | 68 | 1012.4 |
| 20260508230251 | 72 | 193 | 2.0 | 8.0 | 0.00 | 0.00 | 0.00 | 68 | 1012.6 |
| 20260508230004 | 71 | 139 | 2.0 | 9.0 | 0.00 | 0.00 | 0.00 | 69 | 1012.6 |
| 20260508225258 | 71 | 222 | 2.0 | 8.0 | 0.00 | 0.00 | 0.00 | 68 | 1012.7 |
| 20260508224614 | 71 | 215 | 3.0 | 9.0 | 0.00 | 0.00 | 0.00 | 68 | 1012.9 |
| 20260508224315 | 72 | 188 | 3.0 | 10.0 | 0.00 | 0.00 | 0.00 | 69 | 1012.8 |
| 20260508223317 | 71 | 148 | 3.0 | 10.0 | 0.00 | 0.00 | 0.00 | 69 | 1012.9 |
| 20260508223003 | 71 | 227 | 4.0 | 11.0 | 0.00 | 0.00 | 0.00 | 67 | 1013.0 |
| 20260508222247 | 71 | 275 | 3.0 | 8.0 | 0.00 | 0.00 | 0.00 | 69 | 1013.0 |
| 20260508221611 | 71 | 9 | 3.0 | 8.0 | 0.00 | 0.00 | 0.00 | 68 | 1013.1 |
| 20260508221306 | 72 | 235 | 3.0 | 9.0 | 0.00 | 0.00 | 0.00 | 68 | 1013.2 |
| 20260508220307 | 72 | 207 | 3.0 | 9.0 | 0.00 | 0.00 | 0.00 | 67 | 1013.4 |
| 20260508215324 | 72 | 227 | 2.0 | 9.0 | 0.00 | 0.00 | 0.00 | 66 | 1013.5 |
| 20260508214501 | 71 | 183 | 2.0 | 9.0 | 0.00 | 0.00 | 0.00 | 68 | 1013.5 |
| 20260508214322 | 72 | 261 | 4.0 | 8.0 | 0.00 | 0.00 | 0.00 | 67 | 1013.5 |
| 20260508213335 | 73 | 205 | 2.0 | 7.0 | 0.00 | 0.00 | 0.00 | 65 | 1013.6 |
| 20260508213103 | 73 | 268 | 4.0 | 7.0 | 0.00 | 0.00 | 0.00 | 65 | 1013.7 |
| 20260508212347 | 72 | 213 | 3.0 | 8.0 | 0.00 | 0.00 | 0.00 | 69 | 1013.7 |
| 20260508211502 | 71 | 205 | 2.0 | 9.0 | 0.00 | 0.00 | 0.00 | 69 | 1013.8 |
| 20260508210154 | 73 | 155 | 3.0 | 9.0 | 0.00 | 0.00 | 0.00 | 66 | 1013.8 |
| 20260508205150 | 71 | 205 | 4.0 | 10.0 | 0.00 | 0.00 | 0.00 | 70 | 1013.9 |
| 20260508204603 | 71 | 220 | 5.0 | 8.0 | 0.00 | 0.00 | 0.00 | 68 | 1014.0 |
| 20260508203003 | 71 | 217 | 4.0 | 10.0 | 0.00 | 0.00 | 0.00 | 68 | 1014.3 |
| 20260508202932 | 72 | 221 | 4.0 | 9.0 | 0.00 | 0.00 | 0.00 | 68 | 1014.2 |
| 20260508201604 | 70 | 232 | 3.0 | 9.0 | 0.00 | 0.00 | 0.00 | 69 | 1014.5 |
| 20260508200750 | 72 | 255 | 2.0 | 7.0 | 0.00 | 0.00 | 0.00 | 68 | 1014.3 |
| 20260508200112 | 71 | 250 | 2.0 | 8.0 | 0.00 | 0.00 | 0.00 | 69 | 1014.4 |
| 20260508195726 | 71 | 186 | 2.0 | 7.0 | 0.00 | 0.00 | 0.00 | 69 | 1014.3 |
| 20260508194652 | 71 | 157 | 3.0 | 7.0 | 0.00 | 0.00 | 0.00 | 68 | 1014.4 |
| 20260508194511 | 71 | 209 | 4.0 | 8.0 | 0.00 | 0.00 | 0.00 | 69 | 1014.6 |